Погода в Тавильдаре

Таджикистан     38°41′46″N   70°28′54″E
темп.,
°C
ветер,
м/с
пор.,
м/с
влажн.,
%
обл.,
%
осадки,
мм/ч
давл.,
гПа
погр.,
м
17 мая, пн
пн1723:00+6в3370100 0.8 101934
02:00+6в22610 0.0 101813
05:00+5в22600 0.0 101810
08:00+10в11520 0.0 1019323
11:00+14з24314 0.0 10172544
14:00+16з462924 0.0 10153299
17:00+15зсз333449 0.0 10141446
20:00+10сз22522 0.0 101511
18 мая, вт
вт1823:00+8ююв11590 0.0 101711
02:00+7в11571 0.0 101610
05:00+6в11555 0.0 101610
08:00+12св11430 0.0 1015380
11:00+15зсз243465 0.0 10142541
14:00+17з452989 0.0 10122902
17:00+16з333017 0.0 10111638
20:00+10зюз22534 0.1 101412
19 мая, ср
ср1923:00+8ю116346 0.1 101511
02:00+7юв11700 0.5 101511
05:00+6вюв11743 1.0 101511
08:00+12ю115320 0.3 1014329
11:00+15зюз353799 0.5 10122868
14:00+16з563496 0.2 10112966
17:00+15зюз44353 0.3 10112139
20:00+10зюз22574 0.0 101311
20 мая, чт
чт2023:00+8ююв11600 0.0 101411
02:00+7юв225944 0.0 101411
05:00+7вюв2254100 0.0 101411
08:00+12юв013999 0.0 1014454
11:00+15зюз343198 0.0 10132819
14:00+14ююз2640100 0.4 10132373
17:00+10св3265100 2.6 1017348
20:00+8всв2276100 1.1 101955
21 мая, пт
пт2123:00+6всв337710 1.3 101944
02:00+6всв3373100 0.0 101825
05:00+6всв337171 0.1 101833
08:00+11св22525 0.1 1017474
11:00+14сз223627 0.2 10142316
14:00+16зюз343564 0.1 10122435
17:00+12юз4454100 0.6 1014952
20:00+8св2273100 0.9 101745